Home > Time Zones > World Clock > Weather > Palau > Koror > Past weeks

Flag for Palau Weather past 2 weeks in Koror, Palau

Now
86 °F

Broken clouds.


Feels Like: 95 °F
Forecast: 75 / 87 °F
Wind: 6 mph from Northwest

Location: Koror / Palau Island


UV Index: 10 (Very high)

Visibility: 15 mi


Pressure: 29.75 "Hg

Humidity: 70%

Dew point: 75 °F

Location of KororLocation

Historic Weather in Koror

°F

Koror temperature yesterday

Maximum temperature yesterday: 88 °F (at 2:51 PM)
Minimum temperature yesterday: 75 °F (at 10:50 AM)
Average temperature yesterday: 80 °F

Past Weeks' High & Low Weather Summary

 TemperatureHumidityPressure
High88 °F (Apr 11, 11:50 AM)100% (Apr 6, 3:50 PM)29.83 "Hg (Apr 6, 3:50 PM)
Low75 °F (Apr 20, 10:50 AM)62% (Apr 21, 11:53 AM)29.63 "Hg (Apr 7, 2:58 AM)
Average81 °F88%29.76 "Hg
* Reported Apr 6 3:50 PM — Apr 21 3:50 PM, Koror, Weather by CustomWeather, © 2014

Note: Actual official high and low records may vary slightly from our data, if they occured in-between our weather recording intervals... More about our weather records

Advertising

Historic Weather Conditions — Data for Previous 24 hours

 ConditionsComfort  
Time TempWeatherWind HumidityBarometerVisibility
3:50 PM
Apr 21
88 °FBroken clouds.6 mph70%29.74 "Hg15 mi
2:50 PM88 °FBroken clouds.6 mph66%29.74 "Hg15 mi
1:50 PM88 °FBroken clouds.5 mph66%29.75 "Hg15 mi
12:50 PM88 °FBroken clouds.7 mph62%29.77 "Hg15 mi
11:53 AM88 °FBroken clouds.6 mph62%29.79 "Hg15 mi
10:50 AM84 °FBroken clouds.8 mph74%29.81 "Hg15 mi
9:50 AM84 °FBroken clouds.7 mph74%29.82 "Hg15 mi
8:50 AM84 °FBroken clouds.5 mph79%29.82 "Hg15 mi
7:50 AM82 °FScattered clouds.No wind84%29.80 "Hg15 mi
6:50 AM81 °FPartly sunny.No wind94%29.79 "Hg15 mi
4:51 AM75 °FPassing clouds.No wind100%29.76 "Hg15 mi
3:52 AM77 °FPassing clouds.No wind94%29.76 "Hg15 mi
2:55 AM77 °FPassing clouds.No wind94%29.75 "Hg15 mi
1:54 AM77 °FPartly cloudy.No wind94%29.75 "Hg15 mi
12:56 AM77 °FPartly cloudy.No wind94%29.77 "Hg15 mi
11:55 PM
Apr 20
79 °FPassing clouds.No wind94%29.77 "Hg15 mi
10:50 PM77 °FPartly cloudy.No wind94%29.79 "Hg15 mi
9:50 PM77 °FPartly cloudy.No wind94%29.78 "Hg15 mi
8:57 PM77 °FPartly cloudy.No wind94%N/A15 mi
7:50 PM79 °FPartly cloudy.No wind89%29.77 "Hg15 mi
6:50 PM79 °FPartly cloudy.No wind89%29.76 "Hg15 mi
5:51 PM82 °FBroken clouds.3 mph79%29.73 "Hg15 mi
Weather by CustomWeather, © 2014

See weather overview